User: anonymous   Login
Location: Albany
(35.0000°S, 118.0000°E)
Time: 12:35:34
(UTC-04:00)
Language:

JAS-1B - Orbit

View from above orbital plane
View from above orbital plane
View from above satellite
View from above satellite

Ground track
Ground track

The orbit data is extracted from the following two-line orbital elements,

1 20480U 90013C   17147.90184112 -.00000059 +00000-0 -66792-4 0  9993
2 20480 099.0518 284.8730 0540960 076.9684 289.1215 12.83415858279072
Epoch (UTC): 27 May 2017 21:38:39
Eccentricity: 0.0540960
inclination: 99.0518°
perigee height: 911 km
apogee height: 1744 km
right ascension of ascending node: 284.8730°
argument of perigee: 76.9684°
revolutions per day: 12.83415858
mean anomaly at epoch: 289.1215°
orbit number at epoch: 27907

The dashed part of the orbit path shows where the satellite is in the earth's shadow,  

DLR